Location: *
(33.5631°N, 35.3683°E)
Time: 22:36:30
(UTC+00:00)

Daily predictions for brighter satellites

Satellite Brightness Start Highest point End
(mag) Time Altitude Azimuth Time Altitude Azimuth Time Altitude Azimuth
Meteor 2-8 Rocket 4.5 15:57:00 10° S 16:03:02 85° E 16:09:09 10° N
SL-16 R/B 3.0 16:01:39 10° NNW 16:07:13 59° WSW 16:12:45 10° S
Okean 2 3.3 16:09:19 10° N 16:13:25 76° E 16:17:30 10° S
Lacrosse 4 Rocket 1.5 16:10:20 10° NNW 16:14:22 76° WSW 16:18:23 10° SSE
IUS-13 SRM-1 3.6 16:12:47 10° SW 16:15:00 27° S 16:20:24 10° ESE
Cosmos 1842 4.0 16:12:04 10° NNE 16:15:39 31° E 16:19:10 10° SE
Envisat 3.7 16:12:36 10° S 16:17:35 59° W 16:22:36 10° NNW
Cosmos 2151 Rocket 3.5 16:13:42 10° S 16:18:06 76° E 16:22:30 10° N
Cosmos 405 2.9 16:15:01 10° N 16:18:29 65° E 16:21:56 10° SSE
Cosmos 1300 Rocket 3.5 16:17:29 10° S 16:21:48 87° E 16:26:07 10° N
Cosmos 2074 Rocket 4.2 16:16:25 10° N 16:22:28 51° E 16:28:27 10° SSE
Cosmos 2251 Rocket 4.0 16:19:20 10° N 16:24:25 41° ENE 16:29:26 10° SE
Cosmos 1461 3.2 16:24:16 10° SW 16:28:18 66° WNW 16:32:16 10° NNE
Cosmos 2333 Rocket 3.2 16:24:34 10° N 16:29:19 27° ENE 16:33:05 14° ESE
GEOS 3 Rocket 4.2 16:27:12 12° ESE 16:31:35 38° NE 16:36:15 10° NNW
Cosmos 1544 3.4 16:28:15 10° SSE 16:31:38 41° E 16:35:02 10° NNE
CZ-4 R/B 2.9 16:28:39 10° SSW 16:32:14 38° W 16:35:52 10° NNW
DELTA 2 R/B (1) 3.9 16:27:50 10° SW 16:33:12 48° SSE 16:37:47 14° ENE
ASTEX 1 4.0 16:31:30 10° NNE 16:35:53 32° E 16:40:14 10° SSE
COSMOS 2455 3.0 16:32:29 10° NNW 16:38:23 53° ENE 16:43:51 12° SE
Cosmos 2237 Rocket 4.0 16:39:24 10° NNE 16:41:49 13° NE 16:42:58 12° ENE
SAR-Lupe-2 3.5 16:38:58 10° NNE 16:42:31 62° ESE 16:46:02 10° S
Cosmos 2154 Rocket 4.3 16:37:54 10° N 16:43:46 43° E 16:49:36 10° SSE
Cosmos 1441 Rocket 3.1 16:41:25 10° S 16:45:15 70° E 16:49:03 10° NNE
FREGAT/IRIS 3.0 16:47:29 33° E 16:47:47 34° ENE 16:50:22 10° N
USA 32 4.4 16:45:39 10° N 16:50:51 67° W 16:56:01 10° S
MOS 1 4.3 16:51:05 10° SSE 16:56:41 63° ENE 17:02:19 10° N
Cosmos 2184 Rocket 4.1 16:53:06 10° N 16:59:20 81° W 17:05:38 10° S
Ariane Rocket 3.2 16:54:47 10° S 16:59:49 73° WSW 17:04:53 10° NNW
Aureole 1 Rocket 2.9 16:57:25 10° N 17:02:14 61° ENE 17:03:49 33° SE
SJ-6B 3.5 17:01:51 35° E 17:02:32 37° ENE 17:06:21 10° N
Resurs 01 Rocket 3.8 17:04:28 12° NE 17:04:28 12° NE 17:05:08 10° NE
Okean 1 Rocket 3.1 16:59:13 10° S 17:03:32 78° W 17:07:53 10° N
MONITOR-E 4.2 17:02:29 23° S 17:04:03 65° WSW 17:06:50 10° NNW
ISS -3.3 17:01:32 10° SSW 17:04:19 42° SSE 17:04:19 42° SSE
Cosmos 2056 Rocket 3.9 17:01:02 10° S 17:06:03 41° E 17:11:07 10° NNE
Cosmos 1939 Rocket 3.9 17:04:55 10° S 17:08:38 45° W 17:12:20 10° NNW
Cosmos 2333 4.2 17:05:46 10° NNW 17:11:29 88° WSW 17:15:53 18° SSE
Cosmos 1707 3.0 17:09:30 10° N 17:13:04 47° ENE 17:13:04 47° ENE
USA 186 1.9 17:16:33 61° NNE 17:16:33 61° NNE 17:19:33 10° N
GP-B 4.3 17:12:49 10° NNW 17:17:02 44° W 17:21:14 10° SSW
SJ-11-01 4.2 17:15:21 25° SSE 17:18:08 80° ENE 17:22:53 10° N
Cosmos 1624 Rocket 4.0 17:13:22 10° S 17:18:25 56° ESE 17:23:29 10° NNE
COSMOS 2428 2.6 17:14:43 10° NNW 17:20:24 74° ENE 17:22:51 35° SSE
Cosmos 2219 Rocket 2.1 17:15:26 10° NNW 17:21:02 73° ENE 17:23:16 37° SE
SPOT 3 Rocket 3.4 17:21:11 39° SE 17:23:01 66° ENE 17:28:07 10° N
Cosmos 2322 4.4 17:17:55 10° NNW 17:23:30 55° WSW 17:28:54 11° S
Lacrosse 5 rocket 3.3 17:20:28 10° SSW 17:21:02 14° SSW 17:21:02 14° SSW
Meteor 1-15 Rocket 4.1 17:23:34 10° S 17:29:16 83° E 17:35:06 10° N
Cosmos 2360 Rocket 4.3 17:27:26 10° NW 17:31:56 25° WSW 17:36:27 10° SSW
Cosmos 962 Rocket 4.4 17:28:39 10° N 17:34:59 74° E 17:37:45 36° SSE
Cosmos 2219 3.5 17:31:32 10° SSW 17:37:14 69° WNW 17:42:58 10° NNE
Cosmos 2227 Rocket 2.0 17:33:07 10° S 17:38:43 68° ESE 17:44:20 10° NNE
NOSS 0 Rocket 3.9 17:35:38 10° NNW 17:41:47 62° ENE 17:42:25 59° E
BREEZE-M DEB (TANK) 4.0 17:39:37 10° WNW 17:42:53 42° SW 17:45:52 28° SSE
Cosmos 1295 Rocket 4.4 17:37:23 10° N 17:43:34 81° W 17:46:55 29° S
ADEOS Rocket 3.4 17:36:35 10° NNE 17:44:03 86° ESE 17:51:52 10° SSW
Cosmos 1371 Rocket 4.4 17:43:38 10° SSW 17:48:50 61° WNW 17:54:08 10° N
ARGOS 3.0 17:49:40 81° E 17:49:45 81° ENE 17:55:09 10° N
Cosmos 2297 Rocket 2.1 17:44:10 10° SSW 17:49:50 89° WNW 17:55:31 10° NNE
ATLAS 2AS CENTAUR R/B 2.7 17:45:16 10° NNW 17:52:47 89° WSW 17:54:25 58° SSE
H-2A R/B 1.9 17:54:53 76° NW 17:54:53 76° NW 17:59:31 10° NNW
Cosmos 2181 Rocket 4.1 17:56:18 10° SSW 18:02:27 70° W 18:08:44 10° N
Cosmos 2341 Rocket 4.2 18:00:08 10° NNW 18:06:18 66° W 18:08:05 46° SSW
Cosmos 2333 Rocket 3.5 18:08:26 10° NW 18:13:35 36° WSW 18:15:09 31° SW
DELTA 2 R/B (1) 4.2 18:14:03 10° W 18:18:34 52° WNW 18:18:34 52° WNW
Meteor 2-5 Rocket 4.4 18:16:57 10° N 18:21:08 50° NNW 18:21:08 50° NNW
Cosmos 2237 Rocket 3.0 18:20:48 10° NNW 18:24:48 47° NNW 18:24:48 47° NNW
Cosmos 2218 Rocket 4.3 18:21:40 10° N 18:26:59 62° NNW 18:26:59 62° NNW
Resurs 01 Rocket 4.2 18:42:02 17° NNW 18:42:02 17° NNW 18:43:10 10° NNW
SL-16 R/B 4.2 18:50:06 10° NNW 18:51:53 21° N 18:51:53 21° N
